SCP
0 0 0 0 0 0 0 0 0 0 0 0 0 0 0 0 0 0 0 0 0 0 0 0 0 0 0 0 0 0 0 0 0 0 0 0 0 0
0 0 0 0 0 0 0 0 0 0 0 0 0 0 0 0 0 0 0 0 0 0 0 0 0 0 0 0 0 0 0 0 0 0 0 0 0 0
0 0 0 0 0 0 0 0 0 0 0 0 0 0 0 0 0 0 0 0 0 0 0 0 0 0 0 0 0 0 0 0 0 0 0 0 0 0
0 0 0 0 0 0 0 0 0 0 0 0 0 0 0 0 0 0 0 0 0 0 0 0 0 0 0 0 0 0 0 0 0 0 0 0 0 0
0 0 0 0 0 0 0 0 0 0 0 0 0 0 0 0 0 0 0 0 0 0 0 0 0 0 0 0 0 0 0 0 0 0 0 0 0 0
0 0 0 0 0 0 0 0 0 0 0 0 0 0 0 0 0 0 0 0 0 0 0 0 0 0 0 0 0 0 0 0 0 0 0 0 0 0
0 0 0 0 0 0 0 0 0 0 0 0 0 0 0 0 0 0 0 0 0 0 0 0 0 0 0 0 0 0 0 0 0 0 0 0 0 0
0 0 0 0 0 0 0 0 0 0 0 0 0 0 0 0 0 0 -0 0 0 0 0 0 0 0 0 0 0 0 0 0 0 0 0 0 0 0
0 0 0 0 0 0 0 0 0 0 0 0 0 0 0 0 0 0 -0 0 0 0 0 0 0 0 -0 0 0 0 0 0 0 0 0 0 0 0
0 0 0 0 0 0 0 0 0 0 0 0 0 0 0 0 0 0 0 0 0 0 0 0 0 0 -0 -0 0 0 0 0 0 0 0 0 0 0
0 0 0 0 0 0 0 0 0 0 0 0 0 0 0 0 0 0 0 0 0 0 0 0 0 0 0 -0 -0 -0 -0 -0 -0 -0 0 0 0 0
0 0 0 0 0 0 0 0 0 0 0 0 0 0 0 0 0 0 0 0 0 0 0 0 0 0 0 0 -0 -0 -0 -0 -0 -0 -0 0 0 0
0 0 0 0 0 0 0 0 0 0 0 0 0 0 0 0 0 0 0 0 0 0 0 0 0 0 0 0 0 0 -0 -0 -0 -0 -0 0 0 0
0 0 0 0 0 0 0 0 0 0 0 0 0 0 0 0 0 0 0 0 0 0 0 0 0 0 0 0 0 0 -0 -0 -0 -0 -0 -0 0 0
0 0 0 0 0 0 0 0 0 0 0 0 0 0 0 0 0 0 0 0 0 0 0 0 0 0 0 0 0 0 0 -0 -0 -0 -0 -0 -0 0
0 0 0 0 0 0 0 0 0 0 0 0 0 0 0 0 0 0 0 0 0 0 0 0 0 0 0 0 0 0 0 -0 -0 -0 -0 -0 -0 -0
0 0 0 0 0 0 0 0 0 0 0 0 0 0 0 0 0 0 0 0 0 0 0 0 0 0 0 0 0 0 0 0 -0 -0 -0 -0 -0 -0
0 0 0 0 0 0 0 0 0 0 0 0 0 0 0 0 0 0 0 0 0 0 0 0 0 0 0 0 0 0 0 0 0 -0 -0 -0 -0 -0
0 0 0 0 0 0 0 0 0 0 0 0 0 0 0 0 0 0 0 0 0 0 0 0 0 0 0 0 0 0 -0 0 0 0 -0 -0 -0 -0
0 0 0 0 0 0 0 0 0 0 0 0 0 0 0 0 0 0 0 0 0 0 0 0 0 0 0 0 -0 -0 -0 0 0 -0 -0 -0 -0 -0
0 0 0 0 0 0 0 0 0 0 0 0 0 0 0 0 0 0 0 0 0 0 0 0 0 0 0 0 -0 -0 -0 0 -0 -0 -0 -0 -0 -0
0 0 0 0 0 0 0 0 0 0 0 0 0 0 0 0 0 0 0 0 0 0 0 0 0 0 0 0 0 0 0 -0 -0 -0 -0 -0 -0 -0
0 0 0 0 0 0 0 0 0 0 0 0 0 0 0 0 0 0 0 0 0 0 0 0 0 0 0 0 0 0 0 0 -0 -0 -0 -0 -0 -0
Wind_Speed
6 6 5 4 3 4 3 2 4 2 0 1 1 3 3 2 1 0 1 3 4 5 5 4 4 4 4 4 5 7 8 9 10 10 11 13 14 17
3 4 3 1 3 4 3 2 3 3 1 0 1 2 3 3 4 3 3 5 7 7 7 7 5 4 5 6 7 8 10 12 13 12 13 14 16 17
3 2 5 7 4 2 3 4 2 2 2 1 2 4 5 4 3 3 3 3 5 10 12 7 4 4 5 8 10 11 12 12 12 13 13 16 17 18
2 4 7 7 5 4 5 4 3 2 3 3 4 5 4 3 3 3 2 3 4 9 13 10 6 3 5 8 10 12 11 11 11 13 15 17 19 21
4 6 5 7 6 5 6 5 3 4 5 6 3 1 1 1 2 2 2 1 2 6 9 10 8 6 6 7 9 10 10 9 11 14 15 16 18 19
5 7 8 7 6 6 6 5 5 7 5 5 3 2 2 2 1 2 2 2 2 3 5 5 5 5 6 7 8 9 10 10 11 13 14 14 16 18
9 9 9 10 10 7 7 5 6 6 4 4 2 2 3 3 3 3 2 2 2 3 3 3 3 3 3 4 6 10 13 13 14 15 13 13 14 16
8 7 8 9 7 10 12 12 9 6 3 2 2 2 2 2 2 2 2 2 2 3 3 3 2 3 3 4 6 9 12 14 15 16 17 17 16 15
7 7 7 6 9 10 11 12 10 8 4 2 2 2 1 3 3 3 2 0 1 3 2 3 3 3 4 4 7 8 10 14 16 16 18 18 17 14
6 6 7 5 7 8 7 8 7 7 5 2 2 2 2 1 1 1 1 1 2 2 1 2 4 3 4 4 6 8 10 12 14 15 17 19 17 10
4 5 7 7 9 11 9 8 8 8 8 11 11 8 7 6 4 4 4 3 2 3 2 2 4 4 4 4 5 9 11 10 11 13 16 15 13 6
5 5 8 9 11 11 9 7 7 5 6 8 9 9 8 7 7 4 1 2 1 2 3 2 4 4 4 4 4 6 8 10 11 9 11 13 12 6
4 3 3 9 9 9 8 5 3 1 4 6 6 5 5 5 5 5 4 3 2 1 5 2 3 4 2 5 5 4 5 7 7 8 9 10 12 9
5 4 3 7 8 6 6 7 7 4 4 5 4 4 4 4 4 4 5 4 3 3 5 4 2 2 2 3 4 4 3 4 5 5 6 8 9 9
6 8 7 6 6 4 6 7 6 4 5 4 3 2 2 2 3 4 5 5 5 6 6 5 4 3 2 2 3 5 5 4 5 5 6 8 8 9
7 6 4 3 3 2 3 4 3 4 4 3 2 1 2 3 4 3 3 5 4 5 6 7 6 4 3 2 3 4 5 5 6 4 5 5 6 7
8 3 2 1 2 2 2 2 2 4 4 2 3 3 4 3 3 3 3 3 3 3 5 6 6 3 1 2 4 4 4 4 6 6 5 4 5 6
6 3 3 3 3 4 4 3 2 4 4 3 3 4 3 2 2 2 3 3 3 2 3 4 5 6 6 5 3 3 4 4 5 6 6 4 5 7
4 4 4 4 4 4 5 5 4 4 5 3 3 4 3 2 2 2 3 3 3 2 2 3 3 3 4 5 6 3 3 4 4 5 5 4 5 6
4 4 5 4 3 4 6 5 4 5 4 4 3 3 3 2 2 1 1 2 2 2 3 3 3 2 0 1 3 4 4 2 2 3 4 4 3 4
5 4 5 4 4 5 6 6 6 6 6 5 4 3 3 3 2 1 2 3 3 2 2 3 4 4 2 1 2 4 5 4 3 2 2 3 3 5
6 6 5 5 4 5 6 6 5 5 5 5 4 4 3 3 3 3 3 3 2 2 0 2 5 5 4 4 2 2 4 5 6 6 6 4 2 3
6 6 5 5 5 5 5 6 6 5 5 5 4 4 3 3 3 3 3 3 3 2 2 3 4 5 4 3 3 2 3 4 4 5 7 8 5 4
Wind_Direction
211 192 184 198 171 136 158 150 115 102 33 42 18 356 5 7 38 133 250 308 332 312 292 284 299 320 325 312 305 293 280 270 260 256 256 258 255 244
185 177 161 111 94 130 146 127 114 134 136 235 20 350 355 348 5 11 18 39 10 344 300 284 283 295 303 312 309 301 287 274 261 250 245 248 249 248
54 102 120 109 108 139 107 112 129 127 124 40 30 18 25 355 354 19 48 34 6 3 349 323 329 331 332 327 317 304 287 278 271 264 260 254 249 245
145 114 112 110 106 99 91 96 105 117 122 101 51 27 21 343 348 34 44 35 11 7 13 34 50 38 4 341 326 309 292 283 278 274 267 258 247 240
116 107 103 99 93 86 81 86 93 90 98 100 81 16 359 338 356 4 49 18 2 15 28 41 54 51 31 7 352 340 319 302 286 275 267 263 257 248
86 78 69 72 83 86 81 71 82 85 85 92 90 30 8 342 17 4 354 2 354 359 16 18 26 23 12 358 347 340 331 318 298 279 268 265 265 261
63 59 58 66 73 78 83 76 81 86 83 81 72 38 10 2 355 339 346 326 316 352 348 341 349 344 339 339 340 336 333 327 317 306 300 290 274 264
75 63 53 54 71 78 78 70 70 81 82 82 76 55 8 337 330 332 349 7 344 337 335 309 322 312 300 307 326 337 335 333 330 325 315 299 289 283
81 73 63 49 67 72 68 61 55 58 69 128 112 72 16 327 327 351 12 337 247 291 312 303 311 292 281 291 308 321 333 342 339 331 322 312 299 288
88 98 95 73 76 84 71 54 37 29 18 26 81 142 164 269 254 240 260 286 270 300 17 304 309 300 297 301 313 314 322 339 342 338 332 324 312 313
89 86 87 80 79 81 77 63 44 20 20 45 56 70 78 56 37 39 16 33 347 301 331 348 316 306 301 303 322 333 330 331 338 344 340 337 328 359
67 61 77 86 80 80 84 77 65 5 10 31 29 30 36 38 40 59 81 97 33 334 328 357 325 332 321 314 329 336 335 332 322 321 340 351 359 20
115 96 80 94 93 90 88 77 83 38 45 54 40 27 16 19 14 21 32 88 83 322 320 348 343 346 340 314 320 329 334 331 329 334 338 347 5 23
149 150 143 125 119 105 89 90 88 82 69 61 49 30 16 2 351 15 31 39 50 36 358 28 25 350 357 345 322 315 316 329 336 349 358 11 7 6
153 159 165 150 117 83 66 80 90 86 81 72 60 16 327 311 354 17 18 26 32 26 22 30 49 27 35 18 331 332 329 331 338 347 3 15 28 19
142 144 155 135 113 103 81 70 98 116 117 120 113 23 6 25 35 23 25 17 28 352 355 18 32 38 16 22 30 353 351 347 334 343 354 5 15 36
132 120 121 133 132 118 106 111 118 115 108 87 82 67 49 40 22 12 38 44 49 5 343 341 348 11 13 3 17 360 342 340 339 343 358 360 1 14
129 139 161 193 184 176 165 159 155 131 124 124 100 82 70 65 43 21 43 68 62 23 355 341 348 2 5 9 47 15 2 343 333 351 7 16 7 12
139 156 168 192 208 186 167 165 162 148 143 130 106 98 96 88 71 38 27 46 49 26 354 344 11 37 29 352 325 23 28 351 352 1 6 21 30 23
155 167 182 199 187 170 166 168 154 148 144 141 131 121 120 119 96 55 35 60 70 37 8 1 7 4 183 239 297 324 21 41 44 18 356 359 8 353
172 181 189 194 176 180 172 164 159 163 158 154 160 162 161 140 121 110 76 78 93 73 33 348 302 284 256 56 16 341 346 10 53 70 17 13 7 2
178 186 195 198 177 176 167 160 164 170 156 158 169 179 178 152 142 133 107 103 102 110 74 323 341 1 25 44 18 323 332 346 7 36 53 73 78 35
180 183 190 200 184 173 173 171 176 182 177 169 176 175 169 162 154 131 121 133 134 108 44 11 6 12 9 14 22 9 359 359 359 7 15 23 67 63